COSMOS 1375 DEB, 17802

Orbit data source: Space-Track

COSMOS 1375 DEB, 17802 is space debris in LEO originally from a launch on Sun, 06 Jun 1982 UTC launched from the Plesetsk Missile And Space Complex (PKMTR). Debris objects in space refer to the collection of defunct objects orbiting the Earth. Examples of debris include non-operational satellites, rocket bodies, and fragments generated from explosions, collisions, or faulty payload assembly.

Loading next visibility...
Identifier
17802, 1982-055AU
Orbit
LEO
Country
Flag of CISCIS
Related business
Manufacturer
Unknown
Mission
Spacecraft
Bus & Motor
Unknown
Mass
Unknown
Launch date (UTC)
1982-06-06 (44 years ago)
Launch vehicle
Unknown
Launch site
Plesetsk Missile And Space Complex (PKMTR)
Object type
Payload
Rocket body
Debris
Shape & HBR
Unknown shape, 0.1 m
Radar Cross Section
Small (<0.1 m²)

Expand to show TLE details & history
Last TLE update: 2 days ago

TLE from 2 days ago
0 COSMOS 1375 DEB
1 17802U 82055AU  26171.27528632  .00000102  00000-0  18291-3 0  9997
2 17802  65.8330 117.6246 0047960 296.5767 212.5702 13.77449098 38495
Epoch: 2026-06-20T06:36Z
TLE epoch observation values (Epoch: 2026-06-20T06:36:24.738Z)
Latitude
28.21666°
Longitude
-83.82932°
Altitude
1,005.269 km
Speed
7.337 km/s
True Right ascension
18h 55m 03s
True Declination
28° 04' 42"
Sunlit
Object was in full shadow at epoch
Visualization orbit readout
Latitude
Unknown
Longitude
Unknown
Altitude
Unknown
Speed
Unknown
Apparent Right ascension
Unknown
Apparent Declination
Unknown
Sunlit
N/A
Visualization observer readout
Local Sidereal Time
05:18:20
Azimuth
Unknown
Elevation
Unknown
Doppler factor
Unknown
Orbital elements
Apogee altitude
1,006.712 km
Perigee altitude
936.215 km
Semi-major axis
7,349.601 km
Eccentricity
0.0048
Inclination
65.833°
RAAN
117.6246°
Arg. of periapsis
296.5767°
True anomaly
212.27583°
Mean anomaly
212.5702°
Eccentric anomaly
212.42287°
Mean motion
3.44467 °/min
Orbital period
104.51 mins
BSTAR
0.00018291
Loading maneuver chart data...
Computing Atmospheric mass density...
Loading historical data...
Loading historical data...
Loading historical data...
Loading historical data...
Loading historical data...
Loading historical data...
Loading historical data...

Documentation

Showing up to 5 results
|